Flag for Tunisia Weather past 2 weeks in Tunis, Tunisia

Now
75 °F

Passing clouds.


Feels Like: 77 °F
Forecast: 70 / 86 °F
Wind: 7 mph from Southeast

Location: Tunis-Carthage

Current Time: Oct 1, 2014 at 1:26:02 AM

Latest Report: Oct 1, 2014 at 1:00 AM


Visibility: N/A

Pressure: 30.24 "Hg

Humidity: 74%

Dew point: 66 °F

Location of TunisLocation

Historic Weather in Tunis — Graph

°F

Tunis temperature yesterday

Maximum temperature yesterday: 88 °F (at 1:00 PM)
Minimum temperature yesterday: 73 °F (at 4:00 AM)
Average temperature yesterday: 80 °F

Past Weeks' High & Low Weather Summary

 TemperatureHumidityPressure
High102 °F (Sep 21, 12:30 PM)94% (Sep 16, 10:00 PM)30.27 "Hg (Sep 16, 10:00 PM)
Low64 °F (Sep 28, 5:00 AM)18% (Sep 21, 1:30 PM)29.80 "Hg (Sep 18, 3:30 AM)
Average81 °F64%30.03 "Hg
* Reported Midnight between Sep 15 and Sep 16 — Oct 1 12:30 AM, Tunis, Weather by CustomWeather, © 2014

Note: Actual official high and low records may vary slightly from our data, if they occured in-between our weather recording intervals... More about our weather records

Advertising

Tunis weather history for previous 24 hours

 ConditionsComfort  
Time TempWeatherWind HumidityBarometerVisibility
12:30 AM
Oct 1
75 °FPassing clouds.7 mph74%30.24 "HgN/A
12:00 AM75 °FPassing clouds.No wind74%30.24 "HgN/A
11:30 PM
Sep 30
75 °FPassing clouds.5 mph74%30.24 "HgN/A
11:00 PM75 °FPassing clouds.7 mph74%30.24 "HgN/A
10:30 PM77 °FPassing clouds.7 mph69%30.24 "HgN/A
9:30 PM77 °FPassing clouds.10 mph69%30.24 "HgN/A
9:00 PM77 °FPassing clouds.10 mph69%30.24 "HgN/A
8:30 PM77 °FPassing clouds.12 mph69%30.24 "HgN/A
8:00 PM77 °FPassing clouds.12 mph69%30.24 "HgN/A
7:30 PM79 °FPassing clouds.12 mph61%30.24 "HgN/A
7:00 PM79 °FPassing clouds.10 mph61%30.21 "HgN/A
6:30 PM79 °FPassing clouds.13 mph61%30.21 "HgN/A
6:00 PM81 °FPassing clouds.13 mph54%30.21 "HgN/A
5:30 PM82 °FPassing clouds.13 mph51%30.18 "HgN/A
5:00 PM84 °FPassing clouds.16 mph48%30.18 "HgN/A
4:30 PM84 °FPassing clouds.14 mph45%30.18 "HgN/A
4:00 PM86 °FPassing clouds.14 mph43%30.18 "HgN/A
3:30 PM86 °FPassing clouds.15 mph43%30.18 "HgN/A
3:00 PM86 °FPassing clouds.14 mph40%30.18 "HgN/A
2:30 PM86 °FPassing clouds.13 mph40%30.21 "HgN/A
2:00 PM88 °FPassing clouds.12 mph38%30.21 "HgN/A
1:30 PM88 °FPassing clouds.12 mph38%30.21 "HgN/A
1:00 PM88 °FPassing clouds.9 mph38%30.21 "HgN/A
12:30 PM86 °FPassing clouds.9 mph40%30.24 "HgN/A
12:00 PM86 °FPassing clouds.10 mph40%30.24 "HgN/A
11:30 AM86 °FPassing clouds.10 mph43%30.24 "HgN/A
11:00 AM84 °FPassing clouds.12 mph45%30.24 "HgN/A
10:30 AM84 °FPassing clouds.12 mph45%30.27 "HgN/A
10:00 AM82 °FPassing clouds.12 mph48%30.27 "HgN/A
9:30 AM81 °FPassing clouds.12 mph51%30.27 "HgN/A
9:00 AM79 °FPassing clouds.10 mph54%30.27 "HgN/A
8:00 AM77 °FPassing clouds.8 mph61%30.24 "HgN/A
7:30 AM75 °FPassing clouds.6 mph65%30.24 "HgN/A
7:00 AM73 °FPassing clouds.6 mph69%30.24 "HgN/A
6:30 AM73 °FPassing clouds.6 mph69%30.24 "HgN/A
6:00 AM73 °FPassing clouds.7 mph69%30.24 "HgN/A
5:30 AM73 °FPassing clouds.6 mph69%30.24 "HgN/A
5:00 AM73 °FPassing clouds.6 mph69%30.21 "HgN/A
4:30 AM73 °FPassing clouds.7 mph69%30.21 "HgN/A
4:00 AM73 °FPassing clouds.6 mph69%30.21 "HgN/A
2:00 AM75 °FPassing clouds.6 mph65%30.21 "HgN/A
1:00 AM75 °FPassing clouds.8 mph65%30.24 "HgN/A
Weather by CustomWeather, © 2014

See weather overviewHow to use our weather pages